• In Uzbekistan
  • List of Countries
  • For 7 days
  • Water Temperature
  • Weather Map
  • Weather Widgets
  • user-avatar
    Login

    Hourly Weather Canillo

    Today, 11 December, Wednesday

    Time Temperature Precipitation Wind Pressure Humidity
    00:00 -1°C° 0 mm 2 mps 618 mmHg 42%
    01:00 -1°C° 0 mm 2 mps 617 mmHg 43%
    02:00 -1°C° 0 mm 2 mps 617 mmHg 45%
    03:00 +1°C° 0 mm 2 mps 617 mmHg 47%
    04:00 -1°C° 0 mm 2 mps 616 mmHg 48%
    05:00 -1°C° 0 mm 2 mps 616 mmHg 49%
    06:00 -2°C° 0 mm 2 mps 616 mmHg 50%
    07:00 +1°C° 0 mm 1 mps 616 mmHg 53%
    08:00 +2°C° 0 mm 1 mps 616 mmHg 55%
    09:00 +2°C° 0 mm 0 mps 617 mmHg 58%
    10:00 +3°C° 0.1 mm 1 mps 617 mmHg 62%
    11:00 +3°C° 0.1 mm 1 mps 617 mmHg 67%
    12:00 +3°C° 0.1 mm 2 mps 616 mmHg 71%
    13:00 +2°C° 0.8 mm 2 mps 616 mmHg 76%
    14:00 +1°C° 0.8 mm 2 mps 616 mmHg 82%
    15:00 -1°C° 0.8 mm 2 mps 615 mmHg 87%
    16:00 -2°C° 0.2 mm 2 mps 615 mmHg 89%
    17:00 -3°C° 0.2 mm 2 mps 614 mmHg 91%
    18:00 -5°C° 0.2 mm 2 mps 614 mmHg 93%
    19:00 -5°C° 0.1 mm 2 mps 614 mmHg 90%
    20:00 -5°C° 0.1 mm 2 mps 613 mmHg 87%
    21:00 -6°C° 0.1 mm 2 mps 613 mmHg 84%
    22:00 -5°C° 0.8 mm 2 mps 613 mmHg 87%
    23:00 -5°C° 0.8 mm 2 mps 613 mmHg 89%

    Tomorrow, 12 December, Thursday

    Time Temperature Precipitation Wind Pressure Humidity
    00:00 -4°C° 0.8 mm 2 mps 614 mmHg 91%
    01:00 -5°C° 0.5 mm 2 mps 613 mmHg 92%
    02:00 -5°C° 0.5 mm 2 mps 613 mmHg 93%
    03:00 -3°C° 0.5 mm 1 mps 612 mmHg 93%
    04:00 -3°C° 0.3 mm 1 mps 612 mmHg 93%
    05:00 -3°C° 0.3 mm 1 mps 612 mmHg 92%
    06:00 -3°C° 0.3 mm 1 mps 612 mmHg 91%
    07:00 -2°C° 0.4 mm 1 mps 612 mmHg 88%
    08:00 -1°C° 0.4 mm 1 mps 613 mmHg 86%
    09:00 -1°C° 0.4 mm 1 mps 613 mmHg 84%
    10:00 0°C° 0.1 mm 1 mps 613 mmHg 82%
    11:00 +1°C° 0.1 mm 1 mps 613 mmHg 79%
    12:00 +2°C° 0.1 mm 1 mps 613 mmHg 77%
    13:00 +2°C° 0 mm 1 mps 612 mmHg 79%
    14:00 +1°C° 0 mm 1 mps 611 mmHg 82%
    15:00 +1°C° 0 mm 1 mps 611 mmHg 84%
    16:00 -2°C° 0 mm 2 mps 610 mmHg 87%
    17:00 -3°C° 0 mm 2 mps 609 mmHg 89%
    18:00 -4°C° 0 mm 3 mps 608 mmHg 92%
    19:00 -3°C° 0.9 mm 2 mps 608 mmHg 93%
    20:00 -3°C° 0.9 mm 2 mps 607 mmHg 94%
    21:00 -3°C° 0.9 mm 2 mps 607 mmHg 95%
    22:00 -2°C° 1.8 mm 2 mps 607 mmHg 95%
    23:00 -2°C° 1.8 mm 2 mps 607 mmHg 96%

    Day after tomorrow, 13 December, Friday

    Time Temperature Precipitation Wind Pressure Humidity
    00:00 -2°C° 1.8 mm 2 mps 607 mmHg 97%
    01:00 -1°C° 1.4 mm 2 mps 606 mmHg 97%
    02:00 +1°C° 1.4 mm 1 mps 606 mmHg 97%
    03:00 +1°C° 1.4 mm 1 mps 606 mmHg 98%
    04:00 +1°C° 1.6 mm 1 mps 605 mmHg 98%
    05:00 -1°C° 1.6 mm 2 mps 605 mmHg 98%
    06:00 +1°C° 1.6 mm 2 mps 605 mmHg 98%
    07:00 +1°C° 1.9 mm 2 mps 606 mmHg 98%
    08:00 +1°C° 1.9 mm 2 mps 606 mmHg 97%
    09:00 +2°C° 1.9 mm 2 mps 607 mmHg 97%
    10:00 +2°C° 2.5 mm 2 mps 607 mmHg 97%
    11:00 +2°C° 2.5 mm 2 mps 607 mmHg 97%
    12:00 +2°C° 2.5 mm 2 mps 607 mmHg 96%
    13:00 +2°C° 2.4 mm 2 mps 607 mmHg 97%
    14:00 +1°C° 2.4 mm 3 mps 608 mmHg 97%
    15:00 +1°C° 2.4 mm 3 mps 608 mmHg 97%
    16:00 +2°C° 2 mm 2 mps 608 mmHg 97%
    17:00 +1°C° 2 mm 2 mps 608 mmHg 98%
    18:00 +1°C° 2 mm 2 mps 609 mmHg 98%
    19:00 +1°C° 1.5 mm 2 mps 609 mmHg 98%
    20:00 +1°C° 1.5 mm 2 mps 610 mmHg 98%
    21:00 +1°C° 1.5 mm 2 mps 610 mmHg 98%
    22:00 +1°C° 0.1 mm 2 mps 611 mmHg 97%
    23:00 +1°C° 0.1 mm 2 mps 611 mmHg 97%

    14 December, Saturday

    Time Temperature Precipitation Wind Pressure Humidity
    00:00 +1°C° 0.1 mm 2 mps 611 mmHg 97%
    01:00 +1°C° 0 mm 2 mps 611 mmHg 96%
    02:00 +1°C° 0 mm 2 mps 611 mmHg 95%
    03:00 +1°C° 0 mm 2 mps 611 mmHg 94%
    04:00 -1°C° 0 mm 2 mps 611 mmHg 93%
    05:00 -1°C° 0 mm 2 mps 612 mmHg 92%
    06:00 -1°C° 0 mm 2 mps 612 mmHg 91%
    07:00 +1°C° 0 mm 2 mps 613 mmHg 91%
    08:00 +2°C° 0 mm 1 mps 613 mmHg 90%
    09:00 +3°C° 0 mm 1 mps 614 mmHg 90%
    10:00 +4°C° 0 mm 1 mps 614 mmHg 89%
    11:00 +5°C° 0 mm 1 mps 614 mmHg 88%
    12:00 +5°C° 0 mm 0 mps 615 mmHg 87%
    13:00 +4°C° 0 mm 0 mps 614 mmHg 89%
    14:00 +4°C° 0 mm 0 mps 614 mmHg 90%
    15:00 +4°C° 0 mm 0 mps 614 mmHg 92%
    16:00 +3°C° 0 mm 1 mps 613 mmHg 92%
    17:00 +2°C° 0 mm 1 mps 613 mmHg 92%
    18:00 +1°C° 0 mm 1 mps 613 mmHg 92%
    19:00 +1°C° 0 mm 1 mps 613 mmHg 92%
    20:00 +1°C° 0 mm 1 mps 613 mmHg 91%
    21:00 -1°C° 0 mm 2 mps 613 mmHg 91%
    22:00 -2°C° 0 mm 2 mps 613 mmHg 88%
    23:00 -2°C° 0 mm 2 mps 612 mmHg 86%

    15 December, Sunday

    Time Temperature Precipitation Wind Pressure Humidity
    00:00 -2°C° 0 mm 2 mps 612 mmHg 83%
    01:00 -2°C° 0 mm 2 mps 612 mmHg 82%
    02:00 -2°C° 0 mm 2 mps 612 mmHg 81%
    03:00 -3°C° 0 mm 2 mps 611 mmHg 80%
    04:00 -3°C° 0 mm 2 mps 612 mmHg 77%
    05:00 -1°C° 0 mm 1 mps 612 mmHg 74%
    06:00 -1°C° 0 mm 1 mps 612 mmHg 72%
    07:00 +1°C° 0 mm 1 mps 612 mmHg 72%
    08:00 +2°C° 0 mm 1 mps 613 mmHg 72%
    09:00 +3°C° 0 mm 1 mps 614 mmHg 72%
    10:00 +4°C° 0 mm 1 mps 614 mmHg 74%
    11:00 +4°C° 0 mm 1 mps 615 mmHg 77%
    12:00 +5°C° 0 mm 1 mps 615 mmHg 79%
    13:00 +5°C° 0 mm 1 mps 615 mmHg 82%
    14:00 +4°C° 0 mm 1 mps 614 mmHg 84%
    15:00 +3°C° 0 mm 2 mps 614 mmHg 86%
    16:00 +2°C° 0 mm 2 mps 614 mmHg 87%
    17:00 +1°C° 0 mm 2 mps 613 mmHg 88%
    18:00 -1°C° 0 mm 2 mps 613 mmHg 89%
    19:00 -1°C° 0 mm 2 mps 613 mmHg 88%
    20:00 -1°C° 0 mm 2 mps 613 mmHg 88%
    21:00 -1°C° 0 mm 2 mps 613 mmHg 87%
    22:00 -1°C° 0 mm 2 mps 613 mmHg 87%
    23:00 -1°C° 0 mm 2 mps 613 mmHg 86%

    16 December, Monday

    Time Temperature Precipitation Wind Pressure Humidity
    00:00 -1°C° 0 mm 2 mps 612 mmHg 86%
    01:00 -1°C° 0 mm 2 mps 612 mmHg 86%
    02:00 -2°C° 0 mm 2 mps 612 mmHg 85%
    03:00 -2°C° 0 mm 2 mps 611 mmHg 85%
    04:00 -2°C° 0 mm 2 mps 611 mmHg 85%
    05:00 -2°C° 0 mm 2 mps 611 mmHg 85%
    06:00 -2°C° 0 mm 2 mps 611 mmHg 85%
    07:00 -1°C° 0 mm 3 mps 611 mmHg 84%
    08:00 0°C° 0 mm 3 mps 612 mmHg 82%
    09:00 +1°C° 0 mm 3 mps 612 mmHg 80%
    10:00 +2°C° 0 mm 3 mps 612 mmHg 79%
    11:00 +3°C° 0 mm 3 mps 612 mmHg 78%
    12:00 +4°C° 0 mm 4 mps 612 mmHg 77%
    13:00 +3°C° 0 mm 3 mps 612 mmHg 78%
    14:00 +3°C° 0 mm 3 mps 611 mmHg 80%
    15:00 +2°C° 0 mm 3 mps 611 mmHg 81%
    16:00 +2°C° 0 mm 3 mps 611 mmHg 83%
    17:00 +1°C° 0 mm 3 mps 610 mmHg 85%
    18:00 0°C° 0 mm 3 mps 610 mmHg 87%
    19:00 0°C° 0 mm 3 mps 610 mmHg 88%
    20:00 0°C° 0 mm 3 mps 610 mmHg 89%
    21:00 +2°C° 0 mm 2 mps 610 mmHg 91%
    22:00 +1°C° 0.1 mm 3 mps 610 mmHg 90%
    23:00 +1°C° 0.1 mm 3 mps 610 mmHg 90%
    Show more